Regional Weather Roundup
Issued by NWS Little Rock, AR

Home | Current Version | Previous Version | Graphics & Text | Print | Product List | Glossary On
Versions: 1 2 3 4 5 6 7 8 9 10 11 12 13 14 15 16 17 18 19 20 21 22 23 24 25 26 27 28
000
ASUS44 KLZK 300505
RWRLZK

WEATHER ROUNDUP FOR ARKANSAS
NATIONAL WEATHER SERVICE LITTLE ROCK AR
1200 AM CDT SAT APR 30 2016

NOTE: "FAIR" INDICATES FEW OR NO CLOUDS BELOW 12,000 FEET WITH NO
SIGNIFICANT WEATHER AND/OR OBSTRUCTIONS TO VISIBILITY.

ARZ001-003-010-029-300600-
NORTHWEST ARKANSAS

CITY           SKY/WX    TMP DP  RH WIND       PRES   REMARKS
FAYETTEVILLE   RAIN      64  63  96 SE14      29.70F
FORT SMITH     HVY RAIN  66  63  90 E7        29.67F FOG
HARRISON       LGT RAIN  61  60  97 SE7       29.77F
BENTONVILLE    CLOUDY    64  59  82 E9        29.71F
ROGERS         LGT RAIN  63  62  97 E12       29.72F
SILOAM SPGS    CLOUDY    63  55  77 E10       29.70S
$$

ARZ004-005-016-300600-
NORTH CENTRAL ARKANSAS

CITY           SKY/WX    TMP DP  RH WIND       PRES   REMARKS
BATESVILLE     CLOUDY    64  63  94 E6        29.85S
FLIPPIN        CLOUDY   N/A N/A N/A E6        29.75F
MTN HOME       LGT RAIN  62  61  96 SE8       29.78F
$$

ARZ040-041-300600-
WEST CENTRAL ARKANSAS

CITY           SKY/WX    TMP DP  RH WIND       PRES   REMARKS
MENA           CLOUDY    70  68  94 SW6G26    29.61F THUNDER
MOUNT IDA      HVY RAIN  67  64  90 SE13G28   29.67R FOG
$$

ARZ009-017-025-026-028-300600-
NORTHEAST ARKANSAS

CITY           SKY/WX    TMP DP  RH WIND       PRES   REMARKS
CORNING          N/A     63  63 100 E8        29.90R
JONESBORO      RAIN      63  62  97 NE8       29.86F
NEWPORT        RAIN      64  64 100 E6        29.88R FOG
WALNUT RIDGE   CLOUDY    63  59  88 NE8       29.87S
BLYTHEVILLE    CLOUDY    64  60  87 S3        29.89R
$$

ARZ022-023-033-042-044-300600-
CENTRAL ARKANSAS

CITY           SKY/WX    TMP DP  RH WIND       PRES   REMARKS
LITTLE ROCK    TSTM      67  65  93 E10       29.78F FOG
N LITTLE ROCK    N/A     64  64  97 E8G16     29.75F
JACKSONVILLE   LGT RAIN  65  65 100 E10       29.77F
SEARCY         CLOUDY    64  64 100 E13       29.80F
HOT SPRINGS    LGT RAIN  68  65  90 SE18G26   29.70F
RUSSELLVILLE   HVY RAIN  66  64  93 E9        29.71F FOG
$$

ARZ036-300600-
EAST ARKANSAS

CITY           SKY/WX    TMP DP  RH WIND       PRES   REMARKS
WEST MEMPHIS   CLOUDY    64  62  93 CALM      29.86R
$$

ARZ050-053-066-070-073-300600-
SOUTHWEST ARKANSAS

CITY           SKY/WX    TMP DP  RH WIND       PRES   REMARKS
ARKADELPHIA    RAIN      69  69 100 SE13      29.71F FOG
CAMDEN         RAIN      66  64  94 SE6       29.75F
TEXARKANA      HVY RAIN  66  65  96 S10       29.72R FOG
EL DORADO      LGT RAIN  68  67  96 SE7       29.76R
DE QUEEN       LGT RAIN  67  65  93 S9G18     29.64R
$$

ARZ056-057-069-300600-
SOUTHEAST ARKANSAS

CITY           SKY/WX    TMP DP  RH WIND       PRES   REMARKS
PINE BLUFF     LGT RAIN  67  65  93 E9        29.79F
STUTTGART      CLOUDY    68  61  77 E8        29.82F THUNDER
MONTICELLO     LGT RAIN  69  67  93 SE3       29.79S

$$






USA.gov is the U.S. government's official web portal to all federal, state and local government web resources and services.